"Pseudo-MPEC" for ZTF037y

Created 2019 May 24 15:07:29 UT using Find_Orb

Click here for an explanation of pseudo-MPECs

 
 Astrometry: 
     ZTF037y  C2019 05 13.33655817 06 19.18 +11 10 39.1    ~5DKb 18.44iUNEOCPI41
     ZTF037y  C2019 05 13.37663517 07 28.13 +10 40 37.5    ~5DJq 19.20RUNEOCPI41
     ZTF037y  C2019 05 13.37698217 07 28.70 +10 40 20.1    ~5DJq 19.20RUNEOCPI41
     ZTF037y  C2019 05 13.45799717 09 47.22 +09 39 35.8    ~5DJq 19.61gUNEOCPI41
     ZTF037y  C2019 05 13.45834417 09 47.67 +09 39 20.8    ~5DJq 19.61gUNEOCPI41
     ZTF037y  C2019 05 14.33688317 34 50.15 -00 34 59.4    ~5EMM 19.11RUNEOCPI41
     ZTF037y  C2019 05 14.33723117 34 50.57 -00 35 11.6    ~5EMM 19.11RUNEOCPI41
     ZTF037y KC2019 05 14.98809117 50 26.66 -07 06 48.5    ~5F0q 20.2 GVNEOCPJ95
     ZTF037y cC2019 05 15.00427417 50 46.99 -07 15 47.0    ~5F0q       VNEOCPJ95
     ZTF037y cC2019 05 15.01122317 50 55.74 -07 19 36.0    ~5F0q       VNEOCPJ95

Station data:
(I41) Palomar Mountain--ZTF  (N33.357340 W116.859780)  US/California. 1.2-m
   f/2.44 Oschin Schmidt + CCD.
(J95) Great Shefford  (N51.474969 W1.447003)  UK.  Observer P. Birtwhistle.
   0.40-m f/6.0 Schmidt-Cassegrain + CCD.

Orbital elements:  ZTF037y
   Perihelion 2019 May 1.012174 +/- 0.0209 TT =  0:17:31 (JD 2458604.512174)
Epoch 2019 May 15.0 TT = JDT 2458618.5   Earth MOID: 0.0187   AutoNEOCP
M   3.62009171 +/- 0.06             (J2000 ecliptic)
n   0.25880301 +/- 0.00395          Peri.  160.35220 +/- 0.006
a   2.43868939 +/- 0.0248           Node    57.11040 +/- 0.006
e   0.5846457 +/- 0.00421           Incl.    7.43617 +/- 0.036
P   3.81                   H 26.4   G  0.15   U  9.0  
q 1.01292009 +/- 4.72e-5    Q 3.86445869 +/- 0.0494
From 10 observations 2019 May 13-15 (40.2 hr); mean residual 1".46
Residuals in arcseconds: 
190513 I41  3.2+  2.4-    190513 I41  .13-  .19-    190515 J95  .55-  .58-    
190513 I41  2.2-  2.6+    190514 I41  .18+  .69-    190515 J95  .02+  .74+    
190513 I41  2.6-  .85+    190514 I41  .89-  .59+    
190513 I41  1.9+  .76-    190514 J95  .59+  .16-    

Ephemerides (geocentric):
Date (UTC) HH   RA              Dec         delta   r     elong  mag " sig PA
---- -- -- --  -------------   -----------  ------ ------ -----  --- ---- ---
2019 05 24 15  19 28 09.814   -39 33 10.30  .06571 1.0583 132.6 22.4 1.78 147
2019 05 24 16  19 28 19.820   -39 35 39.78  .06591 1.0584 132.6 22.4 1.77 147
2019 05 24 17  19 28 29.763   -39 38 08.26  .06612 1.0586 132.6 22.4 1.77 147
2019 05 24 18  19 28 39.643   -39 40 35.73  .06633 1.0587 132.6 22.4 1.76 147
2019 05 24 19  19 28 49.460   -39 43 02.21  .06654 1.0589 132.6 22.4 1.76 147
2019 05 24 20  19 28 59.215   -39 45 27.71  .06674 1.0591 132.6 22.4 1.75 147
2019 05 24 21  19 29 08.908   -39 47 52.24  .06695 1.0592 132.6 22.4 1.75 147
2019 05 24 22  19 29 18.540   -39 50 15.81  .06716 1.0594 132.6 22.4 1.74 147
2019 05 24 23  19 29 28.111   -39 52 38.43  .06737 1.0595 132.6 22.4 1.74 147
2019 05 25 00  19 29 37.622   -39 55 00.10  .06758 1.0597 132.6 22.4 1.73 146
2019 05 25 01  19 29 47.072   -39 57 20.83  .06779 1.0598 132.6 22.4 1.73 146
2019 05 25 02  19 29 56.462   -39 59 40.64  .06799 1.0600 132.6 22.4 1.72 146
2019 05 25 03  19 30 05.794   -40 01 59.53  .06820 1.0601 132.6 22.5 1.72 146
2019 05 25 04  19 30 15.066   -40 04 17.50  .06841 1.0603 132.6 22.5 1.71 146
2019 05 25 05  19 30 24.280   -40 06 34.58  .06862 1.0605 132.7 22.5 1.71 146
2019 05 25 06  19 30 33.435   -40 08 50.76  .06883 1.0606 132.7 22.5 1.70 146
2019 05 25 07  19 30 42.533   -40 11 06.06  .06904 1.0608 132.7 22.5 1.70 146
2019 05 25 08  19 30 51.573   -40 13 20.48  .06924 1.0609 132.7 22.5 1.69 146
2019 05 25 09  19 31 00.556   -40 15 34.03  .06945 1.0611 132.7 22.5 1.69 145
2019 05 25 10  19 31 09.483   -40 17 46.72  .06966 1.0613 132.7 22.5 1.68 145
2019 05 25 11  19 31 18.353   -40 19 58.55  .06987 1.0614 132.7 22.5 1.68 145
2019 05 25 12  19 31 27.167   -40 22 09.54  .07008 1.0616 132.7 22.5 1.67 145
2019 05 25 13  19 31 35.926   -40 24 19.69  .07029 1.0617 132.7 22.5 1.67 145
2019 05 25 14  19 31 44.629   -40 26 29.01  .07050 1.0619 132.7 22.5 1.66 145
2019 05 25 15  19 31 53.278   -40 28 37.51  .07071 1.0621 132.7 22.5 1.66 145
2019 05 25 16  19 32 01.872   -40 30 45.18  .07092 1.0622 132.7 22.5 1.65 144
2019 05 25 17  19 32 10.411   -40 32 52.06  .07112 1.0624 132.7 22.5 1.65 144
2019 05 25 18  19 32 18.897   -40 34 58.12  .07133 1.0625 132.7 22.6 1.65 144
2019 05 25 19  19 32 27.330   -40 37 03.40  .07154 1.0627 132.7 22.6 1.64 144
2019 05 25 20  19 32 35.709   -40 39 07.88  .07175 1.0629 132.7 22.6 1.64 144
2019 05 25 21  19 32 44.035   -40 41 11.59  .07196 1.0630 132.7 22.6 1.63 144
2019 05 25 22  19 32 52.309   -40 43 14.52  .07217 1.0632 132.7 22.6 1.63 144
2019 05 25 23  19 33 00.531   -40 45 16.68  .07238 1.0633 132.7 22.6 1.62 143
2019 05 26 00  19 33 08.701   -40 47 18.09  .07259 1.0635 132.7 22.6 1.62 143
2019 05 26 01  19 33 16.819   -40 49 18.73  .07280 1.0637 132.7 22.6 1.62 143
2019 05 26 02  19 33 24.887   -40 51 18.64  .07301 1.0638 132.7 22.6 1.61 143
2019 05 26 03  19 33 32.903   -40 53 17.80  .07322 1.0640 132.7 22.6 1.61 143
2019 05 26 04  19 33 40.869   -40 55 16.22  .07343 1.0642 132.7 22.6 1.60 143
2019 05 26 05  19 33 48.784   -40 57 13.92  .07364 1.0643 132.7 22.6 1.60 142
2019 05 26 06  19 33 56.650   -40 59 10.90  .07385 1.0645 132.8 22.6 1.60 142
2019 05 26 07  19 34 04.466   -41 01 07.16  .07406 1.0646 132.8 22.6 1.59 142
2019 05 26 08  19 34 12.232   -41 03 02.71  .07427 1.0648 132.8 22.6 1.59 142
2019 05 26 09  19 34 19.950   -41 04 57.55  .07448 1.0650 132.8 22.6 1.59 142
2019 05 26 10  19 34 27.619   -41 06 51.70  .07469 1.0651 132.8 22.7 1.58 142
2019 05 26 11  19 34 35.239   -41 08 45.16  .07490 1.0653 132.8 22.7 1.58 141
2019 05 26 12  19 34 42.811   -41 10 37.93  .07511 1.0655 132.8 22.7 1.58 141
2019 05 26 13  19 34 50.335   -41 12 30.02  .07532 1.0656 132.8 22.7 1.57 141
2019 05 26 14  19 34 57.812   -41 14 21.43  .07553 1.0658 132.8 22.7 1.57 141